Карточка аэропорта UATT

Внимание!
Информация на этой странице в стадии наполнения.
Если вы не увидели какой-то информации, или заметили неточность - пожалуйста сообщите нам!
Спасибо!
Команда RU-STAFF
Название аэропортаАктобе
Название аэропорта (англ.)Aktobe
Превышение738 ft. (224.9 m.)
Координаты50°14.748', 57°12.402'
Высота перехода10000ft
Эшелон переходаFL120, QNH<733:FL130
Коды ответчика3440-3447, 3540-3547
Зона ОрВДАктобе РПИ (UATT)
Данные METARUATT 231030Z 18002MPS CAVOK M17/M22 Q1037 NOSIG RMK QFE758/1010
Проноз погоды (TAF)UATT 230503Z 2306/2406 VRB01MPS 9999 SCT033 TXM13/2312Z TNM28/2403Z TEMPO 2306/2312 SCT002 BECMG 2315/2317 3100 BR BKN011 TEMPO 2315/2403 1000 BKN003
NOTAMshow/hide NOTAM
AWOS   TABLE

Информация о ВПП

ВПП Длина ВПП (м.) Покрытие Курс ВПП Частота ILS
313202Бетон315111.7
133202Бетон135111.7

Диспетчерские позиции




Спутниковое изображение